Date,TemperatureHighF,TemperatureAvgF,TemperatureLowF,DewpointHighF,DewpointAvgF,DewpointLowF,HumidityHigh,HumidityAvg,HumidityLow,PressureMaxIn,PressureMinIn,WindSpeedMaxMPH,WindSpeedAvgMPH,GustSpeedMaxMPH,PrecipitationSumIn
2013-1-1,52.2,45.5,39.9,38.5,34.0,28.2,85,65,44,30.33,30.26,31,6,34,0.00
2013-1-2,55.6,47.3,39.2,38.3,32.0,27.1,81,56,39,30.30,30.19,17,4,18,0.00
2013-1-3,55.8,44.1,35.1,41.7,36.4,31.1,87,75,57,30.32,30.22,13,4,13,0.00
2013-1-4,56.5,47.0,39.9,38.8,36.6,32.9,90,69,43,30.34,30.22,16,4,16,0.00
2013-1-5,52.2,45.5,38.8,46.8,41.9,34.9,95,87,78,30.31,30.12,18,2,20,0.35
2013-1-6,51.6,46.3,41.5,44.1,42.4,39.6,94,86,73,30.25,30.11,26,4,27,0.35
2013-1-7,56.7,47.0,39.6,48.0,43.0,37.8,95,87,68,30.32,30.21,8,2,10,0.00
2013-1-8,59.5,49.0,42.6,48.2,44.0,40.8,95,84,65,30.30,30.18,13,4,13,0.01
2013-1-9,53.1,47.0,42.3,49.8,41.7,35.6,93,82,62,30.21,30.04,28,6,32,0.00
2013-1-10,50.4,44.7,39.0,37.4,34.5,32.0,83,68,51,30.25,30.13,20,6,21,0.00
2013-1-11,52.0,44.3,39.6,40.8,35.7,31.6,89,72,62,30.31,30.18,16,4,17,0.00
2013-1-12,49.5,42.9,36.3,36.3,29.9,20.1,87,62,32,30.31,30.20,11,2,13,0.00
2013-1-13,49.5,40.7,31.3,35.1,26.2,17.4,80,57,31,30.32,30.23,12,3,12,0.00
2013-1-14,50.5,42.8,35.8,27.0,20.0,14.4,63,41,28,30.46,30.28,21,5,23,0.00
2013-1-15,51.4,42.4,34.2,32.5,28.2,24.8,77,58,36,30.54,30.45,15,4,17,0.00
2013-1-16,56.5,45.0,35.6,39.4,33.2,28.6,88,65,37,30.49,30.31,17,5,18,0.00
2013-1-17,63.0,51.0,41.2,42.1,32.7,26.6,80,53,26,30.32,30.20,19,4,21,0.00
2013-1-18,63.7,53.5,43.9,37.9,32.9,26.4,76,48,27,30.29,30.18,21,5,24,0.00
2013-1-19,61.9,51.6,38.8,40.6,34.2,23.0,86,56,29,30.30,30.20,22,5,22,0.00
2013-1-20,63.3,51.4,40.8,40.6,32.6,25.0,85,53,26,30.28,30.18,18,4,22,0.00
2013-1-21,64.2,52.2,39.9,38.5,35.0,27.9,84,54,31,30.24,30.13,17,5,20,0.00
2013-1-22,62.4,53.9,44.6,45.0,40.7,36.0,78,62,46,30.16,30.05,13,2,15,0.00
2013-1-23,53.8,50.7,49.1,50.2,46.5,43.0,95,86,74,30.15,30.00,15,2,16,0.04
2013-1-24,59.4,53.6,49.3,51.8,49.4,47.3,94,86,75,30.25,30.12,15,3,17,0.04
2013-1-25,64.0,55.8,50.4,55.0,51.4,48.6,96,86,70,30.25,30.09,13,3,14,0.00
2013-1-26,56.8,51.5,48.0,50.0,43.8,36.1,96,76,48,30.14,30.04,27,8,27,0.00
2013-1-27,54.9,47.6,41.5,41.0,37.8,30.6,83,69,41,30.24,30.12,16,4,19,0.00
2013-1-28,57.9,48.7,41.7,43.7,39.7,36.1,84,72,50,30.35,30.22,16,5,18,0.00
2013-1-29,57.6,49.6,41.9,44.4,41.0,37.2,85,73,56,30.42,30.32,12,2,13,0.00
2013-1-30,62.4,51.4,43.2,47.5,43.8,40.1,91,76,50,30.40,30.31,8,2,9,0.00
2013-1-31,64.2,52.0,43.2,47.8,44.2,40.3,93,76,53,30.35,30.23,12,5,13,0.00
2013-2-1,64.6,53.9,44.4,47.5,45.0,41.5,92,74,52,30.27,30.17,19,4,19,0.00
2013-2-2,59.2,49.5,45.3,48.7,46.3,43.5,96,89,67,30.36,30.27,10,3,12,0.00
2013-2-3,55.8,49.5,42.4,46.9,43.9,38.5,92,81,64,30.32,30.19,10,2,11,0.00
2013-2-4,55.0,48.7,46.2,48.9,46.2,44.2,95,91,79,30.24,30.12,10,2,11,0.00
2013-2-5,57.9,50.1,45.0,47.7,44.2,40.6,89,80,67,30.21,30.12,19,4,19,0.00
2013-2-6,57.0,48.5,41.4,45.9,41.3,38.3,91,77,56,30.26,30.18,13,3,13,0.00
2013-2-7,54.1,48.2,44.8,46.0,41.9,34.3,93,80,49,30.23,30.05,21,6,21,0.15
2013-2-8,54.7,46.8,41.2,42.4,39.6,37.0,92,77,56,30.08,29.99,15,4,16,0.00
2013-2-9,57.7,47.8,39.4,39.4,33.6,23.9,83,60,29,30.15,30.05,16,3,20,0.00
2013-2-10,58.8,47.2,36.9,44.2,37.1,32.0,83,69,46,30.18,30.08,10,2,11,0.00
2013-2-11,63.9,50.9,40.8,47.5,38.0,26.4,92,66,27,30.29,30.12,16,5,17,0.00
2013-2-12,62.1,50.1,42.6,46.9,42.6,36.3,94,78,42,30.42,30.29,18,3,22,0.00
2013-2-13,56.1,47.7,40.6,48.2,44.5,38.5,95,89,70,30.41,30.27,15,3,15,0.00
2013-2-14,69.4,53.5,42.1,49.8,45.7,40.8,97,77,45,30.31,30.20,9,1,11,0.01
2013-2-15,70.3,60.0,47.7,45.7,40.7,35.2,89,51,35,30.32,30.25,19,5,21,0.00
2013-2-16,69.4,55.2,47.8,50.2,46.5,41.9,91,74,46,30.29,30.10,13,5,16,0.00
2013-2-17,58.6,50.9,46.0,47.5,45.9,43.3,94,84,62,30.12,30.03,11,4,12,0.00
2013-2-18,52.2,48.3,45.0,45.0,41.3,37.2,91,77,63,30.09,30.02,22,8,24,0.00
2013-2-19,48.6,45.6,42.1,44.2,38.4,33.8,90,76,60,30.03,29.80,23,8,25,0.38
2013-2-20,58.3,47.0,38.7,41.9,37.3,32.9,83,70,47,30.12,29.91,18,4,19,0.00
2013-2-21,59.5,48.8,39.9,39.0,36.2,29.8,86,64,35,30.23,30.11,17,4,18,0.00
2013-2-22,56.7,49.2,39.9,46.6,42.0,36.3,89,77,57,30.31,30.23,15,3,16,0.00
2013-2-23,57.7,51.0,46.9,47.1,39.0,31.8,89,65,38,30.32,30.22,21,8,23,0.00
2013-2-24,61.0,51.1,44.1,45.0,36.0,23.2,88,60,25,30.31,30.22,21,6,24,0.00
2013-2-25,60.3,50.8,44.8,48.7,44.2,40.3,92,79,59,30.32,30.22,10,3,12,0.00
2013-2-26,65.5,50.8,40.3,46.0,38.4,20.5,86,67,19,30.28,30.19,14,4,14,0.00
2013-2-27,62.1,50.7,40.3,48.2,42.9,33.6,89,75,38,30.42,30.26,9,3,10,0.00
2013-2-28,59.7,52.9,48.4,51.8,49.1,46.0,94,87,71,30.51,30.42,14,4,16,0.00
2013-3-1,71.2,56.1,45.5,53.8,48.9,43.9,96,79,46,30.49,30.28,14,2,15,0.00
2013-3-2,69.1,55.0,50.5,54.1,49.8,46.2,93,83,59,30.30,30.12,14,4,17,0.00
2013-3-3,59.0,51.9,48.0,51.4,48.1,44.6,94,87,73,30.16,30.09,18,6,18,0.00
2013-3-4,53.1,48.5,45.1,46.0,44.1,40.6,92,85,72,30.21,30.11,16,4,18,0.00
2013-3-5,55.2,49.4,42.4,46.9,42.7,39.2,89,78,66,30.13,29.87,31,10,34,0.21
2013-3-6,54.3,50.7,43.9,48.6,43.9,40.3,92,78,65,30.13,29.88,33,9,38,0.30
2013-3-7,55.4,48.7,42.3,45.1,41.8,39.0,92,78,56,30.05,29.91,12,2,15,0.00
2013-3-8,59.4,50.3,45.3,44.8,41.8,39.2,86,73,51,30.10,29.89,25,6,27,0.00
2013-3-9,61.9,51.4,41.2,49.5,43.2,37.2,89,75,41,30.36,30.10,15,3,17,0.00
2013-3-10,63.0,52.2,42.8,49.3,45.5,39.2,93,80,44,30.41,30.30,12,3,12,0.00
2013-3-11,68.9,52.2,42.1,50.5,46.3,38.1,95,82,43,30.32,30.16,16,4,16,0.00
2013-3-12,62.4,52.9,48.0,53.1,49.3,46.4,96,88,70,30.22,30.12,12,4,15,0.00
2013-3-13,76.8,56.5,45.0,56.1,50.5,43.9,97,83,44,30.22,30.10,14,3,15,0.01
2013-3-14,57.9,52.3,47.8,51.6,49.2,46.6,97,89,77,30.23,30.14,11,4,13,0.01
2013-3-15,63.7,53.5,47.8,51.8,48.8,45.7,94,85,57,30.19,30.10,14,4,14,0.00
2013-3-16,66.9,54.4,48.4,52.5,47.7,43.3,96,80,44,30.18,30.07,27,6,28,0.00
2013-3-17,63.0,54.5,46.0,49.1,43.9,38.3,87,69,46,30.22,30.09,15,4,16,0.00
2013-3-18,58.8,52.2,46.9,48.6,45.9,42.8,89,80,60,30.18,30.09,12,4,14,0.00
2013-3-19,61.2,52.9,48.2,49.6,46.4,39.2,90,79,47,30.20,30.11,16,3,17,0.10
2013-3-20,57.4,53.2,48.9,54.3,50.0,45.5,96,89,75,30.19,30.12,17,5,18,0.14
2013-3-21,60.8,52.2,42.4,47.5,43.2,39.4,90,72,49,30.19,30.06,15,5,16,0.00
2013-3-22,66.9,54.7,45.3,42.8,37.2,24.6,78,56,22,30.18,30.08,15,6,16,0.00
2013-3-23,65.7,54.2,44.6,46.4,39.3,24.8,84,61,23,30.20,30.09,13,4,15,0.00
2013-3-24,60.1,52.0,46.6,48.7,46.0,42.6,89,81,54,30.16,30.03,18,5,20,0.00
2013-3-25,56.3,50.2,46.9,46.9,44.6,43.0,90,81,68,30.09,29.99,17,8,19,0.00
2013-3-26,57.9,51.8,46.0,49.3,45.4,42.1,88,79,70,30.06,29.99,12,3,13,0.00
2013-3-27,58.5,53.4,49.6,53.1,49.9,45.7,96,88,79,30.08,30.01,21,6,22,0.00
2013-3-28,65.3,57.1,52.9,54.9,52.3,50.5,96,85,69,30.14,30.06,14,4,15,0.00
2013-3-29,74.5,56.9,50.0,55.0,51.3,48.4,97,83,49,30.14,30.06,19,6,20,0.00
2013-3-30,64.6,55.7,51.3,54.0,51.4,49.6,96,86,64,30.13,30.03,20,6,23,0.04
2013-3-31,64.6,57.0,53.6,54.7,52.8,48.9,94,86,62,30.12,30.03,20,5,22,0.04
2013-4-1,62.1,56.3,52.2,55.0,51.9,48.0,97,86,67,30.21,30.10,15,4,16,0.45
2013-4-2,60.1,53.6,49.3,53.4,50.0,46.6,94,88,77,30.25,30.14,13,4,14,0.00
2013-4-3,71.1,54.7,49.6,55.8,50.4,47.8,94,86,53,30.20,30.05,14,5,16,0.00
2013-4-4,61.5,54.7,49.8,56.8,52.8,47.8,96,93,83,30.18,30.04,26,8,27,0.42
2013-4-5,61.0,56.3,53.6,54.9,52.5,50.2,96,87,72,30.24,30.17,18,6,21,0.00
2013-4-6,60.3,55.3,52.5,55.4,52.3,49.5,95,90,82,30.25,30.18,15,6,16,0.00
2013-4-7,61.3,55.3,51.3,55.2,50.4,46.8,94,84,68,30.24,29.90,32,8,35,0.03
2013-4-8,67.6,55.3,48.0,46.6,39.8,22.1,80,58,18,30.08,29.86,36,13,42,0.03
2013-4-9,76.6,62.4,51.3,46.8,41.1,25.2,71,49,15,30.15,30.06,24,9,27,0.00
2013-4-10,76.8,64.5,55.2,55.4,49.5,45.1,87,59,35,30.22,30.08,20,6,23,0.00
2013-4-11,66.6,57.3,50.0,52.5,48.7,45.7,86,73,52,30.11,29.89,16,5,17,0.00
2013-4-12,61.2,54.1,49.6,52.0,48.5,46.0,90,82,68,29.98,29.88,16,6,17,0.00
2013-4-13,66.2,55.6,48.9,50.9,45.4,40.1,87,70,46,29.96,29.86,25,8,25,0.00
2013-4-14,65.5,54.1,45.7,47.5,41.3,32.7,88,63,40,29.99,29.90,30,8,32,0.00
2013-4-15,57.9,50.8,46.0,46.8,39.5,34.0,90,67,47,30.01,29.91,40,10,42,0.00
2013-4-16,65.8,55.0,46.0,44.4,35.3,26.4,68,50,26,30.22,30.01,20,8,22,0.00
2013-4-17,68.7,60.1,53.6,47.8,33.0,14.7,77,39,14,30.33,30.21,24,8,24,0.00
2013-4-18,70.0,58.5,50.5,50.4,44.0,34.9,86,61,31,30.32,30.24,14,4,15,0.00
2013-4-19,66.6,57.7,49.6,52.0,49.2,46.2,91,75,49,30.29,30.11,13,5,16,0.00
2013-4-20,75.0,59.5,51.6,52.9,48.4,40.6,88,70,30,30.17,30.04,15,4,17,0.00
2013-4-21,73.9,59.5,49.8,54.7,49.9,44.8,87,72,43,30.09,29.97,13,4,13,0.00
2013-4-22,81.7,62.9,53.2,54.9,49.9,42.3,91,66,25,30.02,29.90,12,3,18,0.00
2013-4-23,76.5,59.1,48.4,50.7,41.8,19.6,91,62,12,29.98,29.91,17,5,19,0.00
2013-4-24,58.8,52.5,48.0,49.1,47.5,45.5,93,84,68,30.01,29.90,23,8,25,0.00
2013-4-25,59.9,54.9,51.3,50.4,48.9,46.6,86,80,70,30.19,30.01,22,8,22,0.00
2013-4-26,59.4,53.2,49.6,51.6,48.2,46.0,91,83,73,30.29,30.18,15,4,17,0.00
2013-4-27,58.5,51.5,48.4,52.2,48.1,45.7,94,88,77,30.29,30.14,22,8,25,0.00
2013-4-28,66.6,56.5,49.6,54.5,50.6,46.8,93,81,62,30.14,29.93,15,6,16,0.00
2013-4-29,71.6,61.3,53.8,56.3,53.1,50.4,90,75,52,29.95,29.81,14,4,16,0.00
2013-4-30,67.1,59.3,53.1,52.9,50.2,35.2,87,73,34,29.91,29.84,14,4,16,0.00
2013-5-1,79.2,66.9,56.7,52.2,36.5,14.4,80,39,9,30.13,29.89,18,6,22,0.00
2013-5-2,88.3,67.1,53.4,51.1,43.2,20.8,85,50,10,30.20,30.12,15,3,16,0.00
2013-5-3,78.6,64.2,55.8,54.7,49.7,37.9,86,62,25,30.13,29.85,14,4,15,0.00
2013-5-4,71.8,59.0,54.1,53.4,51.3,46.2,89,77,42,29.85,29.64,28,7,30,0.00
2013-5-5,63.7,59.1,54.7,52.0,50.1,47.8,85,72,60,29.86,29.66,17,6,23,0.00
2013-5-6,66.4,60.7,56.3,52.9,51.4,49.1,82,72,56,30.02,29.86,23,6,24,0.00
2013-5-7,66.6,59.7,54.0,55.4,53.2,51.8,93,79,61,30.10,30.01,20,6,20,0.00
2013-5-8,60.4,55.4,52.5,52.7,50.6,48.4,93,84,74,30.19,30.09,17,6,17,0.00
2013-5-9,62.1,56.1,52.3,53.1,50.2,47.7,87,81,71,30.23,30.14,15,5,17,0.00
2013-5-10,57.9,53.8,51.3,54.0,50.6,48.4,93,89,85,30.24,30.15,22,9,24,0.00
2013-5-11,63.9,55.1,50.7,56.1,51.9,49.1,96,89,74,30.21,30.10,19,7,21,0.00
2013-5-12,64.4,57.4,52.0,57.2,53.8,50.4,95,88,76,30.20,30.08,16,7,19,0.00
2013-5-13,59.4,54.0,52.0,55.2,51.5,49.8,95,91,83,30.15,30.09,18,9,20,0.00
2013-5-15,67.5,61.4,56.5,51.6,49.7,47.1,78,66,50,30.09,30.04,27,-15,27,0.00
2013-5-16,66.6,59.2,54.0,56.7,52.0,47.5,92,78,61,30.09,30.01,22,7,24,0.00
2013-5-17,66.4,57.9,52.9,53.1,47.7,42.8,79,69,52,30.13,30.02,19,7,21,0.00
2013-5-18,72.0,59.7,51.3,54.1,49.9,46.4,88,71,47,30.19,30.11,26,6,26,0.00
2013-5-19,75.6,62.5,52.7,55.0,51.2,45.7,86,68,38,30.17,30.02,14,4,15,0.00
2013-5-20,75.4,61.2,52.3,57.2,52.8,48.6,89,75,40,30.05,29.97,22,6,23,0.00
2013-5-21,67.6,58.0,52.0,50.9,46.8,39.4,89,68,44,30.04,29.96,32,10,38,0.00
2013-5-22,64.2,55.4,49.3,43.5,36.2,21.6,71,50,22,30.08,29.95,26,12,29,0.00
2013-5-23,66.4,56.1,48.6,46.2,42.7,40.1,77,61,41,30.05,29.97,19,7,19,0.00
2013-5-24,67.5,56.6,50.5,48.6,45.7,40.6,87,68,40,30.06,29.98,19,6,21,0.00
2013-5-25,64.8,55.2,49.5,50.7,47.5,45.3,86,76,51,30.10,30.01,27,9,27,0.00
2013-5-26,65.5,58.7,53.4,54.3,51.6,48.4,89,78,67,30.18,30.09,25,8,25,0.00
2013-5-27,62.8,57.4,54.1,55.8,52.4,47.8,95,84,70,30.17,30.04,20,7,20,0.02
2013-5-28,67.3,59.4,54.0,57.7,54.2,48.9,97,84,64,30.06,29.97,15,5,15,0.03
2013-5-29,69.6,60.5,55.8,55.8,51.7,47.8,88,73,53,30.03,29.94,24,7,24,0.00
2013-5-30,70.5,59.7,52.0,53.4,50.1,45.1,90,72,41,30.04,29.98,16,4,17,0.00
2013-5-31,67.6,59.5,53.1,55.6,51.5,48.2,86,75,55,30.07,29.96,16,5,18,0.00
2013-6-1,70.3,60.2,54.1,54.3,52.0,49.5,85,75,54,29.99,29.82,20,6,20,0.00
2013-6-2,62.2,55.9,52.0,53.1,51.1,49.5,92,84,70,29.84,29.73,25,10,26,0.00
2013-6-3,62.2,56.5,52.0,53.4,51.2,49.6,93,83,71,29.92,29.78,23,10,26,0.00
2013-6-4,60.6,56.1,54.0,53.6,51.3,50.2,89,84,76,30.03,29.91,23,9,23,0.00
2013-6-5,60.4,55.2,52.5,53.6,50.7,48.7,91,85,76,30.06,29.98,17,8,19,0.00
2013-6-6,60.3,54.5,51.3,54.1,51.1,49.1,95,89,78,30.01,29.91,24,9,24,0.00
2013-6-7,66.0,57.1,52.0,57.4,53.3,50.5,95,88,72,29.95,29.77,20,8,20,0.00
2013-6-8,66.7,58.9,53.8,57.0,54.1,51.6,94,85,69,29.87,29.78,21,8,25,0.00
2013-6-9,61.5,58.0,56.3,55.2,54.2,53.1,92,87,79,29.94,29.86,31,13,31,0.00
2013-6-10,63.1,58.0,55.0,54.1,53.2,51.4,94,84,70,30.01,29.86,28,9,28,0.01
2013-6-11,66.2,59.0,55.8,56.3,53.2,51.4,87,81,68,30.04,29.94,16,5,17,0.00
2013-6-12,70.5,60.7,53.4,55.8,51.1,45.7,88,72,44,30.04,29.96,18,6,20,0.00
2013-6-13,70.2,60.0,52.5,55.2,51.4,45.3,87,74,53,30.14,30.04,15,5,17,0.00
2013-6-14,72.1,59.9,52.7,55.9,52.7,49.3,90,78,47,30.04,29.88,21,6,22,0.00
2013-6-15,57.7,53.4,50.7,53.1,50.2,48.4,93,89,83,30.06,29.89,27,12,27,0.00
2013-6-16,73.8,58.4,52.3,57.0,52.3,49.6,91,81,47,30.14,30.04,22,8,23,0.00
2013-6-17,74.1,61.5,52.0,57.9,53.7,50.4,95,77,53,30.14,30.06,22,7,22,0.00
2013-6-18,68.2,60.7,55.6,53.6,49.9,45.3,92,69,46,30.08,30.02,32,11,32,0.00
2013-6-19,72.9,61.3,53.2,52.9,48.5,43.7,81,64,37,30.10,30.04,23,7,26,0.00
2013-6-20,73.8,61.6,54.3,55.9,49.2,41.9,83,66,33,30.06,29.99,24,6,27,0.00
2013-6-21,66.4,58.7,53.8,54.5,52.2,50.0,89,79,58,30.03,29.96,21,8,22,0.00
2013-6-22,68.4,60.0,54.9,56.7,53.5,50.9,90,80,61,29.99,29.88,21,6,24,0.00
2013-6-23,61.0,57.8,54.3,59.0,55.8,52.5,97,93,88,29.93,29.87,18,7,21,0.00
2013-6-24,59.4,56.9,54.9,57.6,55.3,53.4,97,94,87,29.96,29.84,14,5,17,0.03
2013-6-25,67.5,62.1,58.6,64.0,60.5,57.0,98,95,85,30.04,29.93,17,5,18,0.01
2013-6-26,75.6,64.8,60.1,64.6,61.1,59.2,98,88,68,30.10,30.02,11,4,12,0.01
2013-6-27,72.7,64.4,57.6,63.1,59.6,56.3,98,85,68,30.13,30.05,12,4,13,0.00
2013-6-28,71.6,63.4,58.1,61.7,58.5,56.1,94,84,70,30.08,29.94,19,7,20,0.00
2013-6-29,74.7,64.9,58.8,61.0,57.8,55.6,90,78,59,29.97,29.85,19,7,20,0.00
2013-6-30,66.7,61.3,58.5,58.6,56.8,55.4,90,85,74,29.90,29.81,22,9,25,0.00
2013-7-1,70.5,61.0,56.5,61.0,56.7,54.5,94,86,68,29.89,29.84,26,8,27,0.00
2013-7-2,69.3,59.6,56.1,60.3,56.4,54.9,96,89,72,29.98,29.87,24,11,27,0.00
2013-7-3,70.5,61.4,57.0,61.9,57.8,55.6,96,88,72,29.97,29.82,18,6,21,0.00
2013-7-4,67.5,62.7,58.8,59.5,57.4,52.7,95,83,69,29.83,29.73,23,9,25,0.00
2013-7-5,61.2,57.5,55.4,54.7,52.9,51.6,89,85,78,29.83,29.76,24,12,27,0.00
2013-7-6,61.0,56.3,54.1,54.1,52.4,51.3,92,87,77,29.86,29.80,24,12,25,0.00
2013-7-7,63.9,57.9,54.7,55.6,53.4,51.4,92,85,74,29.92,29.84,17,8,20,0.00
2013-7-8,63.0,58.0,54.5,56.7,53.8,51.8,94,86,76,30.03,29.92,20,7,21,0.00
2013-7-9,67.5,58.9,53.2,58.8,54.9,52.2,97,87,70,30.09,29.98,17,6,17,0.00
2013-7-10,62.4,56.3,53.4,56.5,53.4,51.6,96,90,79,30.04,29.96,23,9,24,0.00
2013-7-11,59.2,54.8,52.0,54.3,51.9,50.0,94,90,83,30.00,29.94,26,10,26,0.00
2013-7-12,61.0,56.3,53.8,55.2,52.7,51.1,93,88,80,30.00,29.93,22,10,22,0.00
2013-7-13,61.0,56.9,54.3,55.6,53.2,51.6,92,88,79,30.02,29.95,22,10,22,0.00
2013-7-14,60.6,55.9,53.4,55.6,52.9,51.1,93,90,82,30.06,29.95,21,9,22,0.00
2013-7-15,61.7,55.6,51.3,55.4,52.3,49.6,95,89,77,29.99,29.89,20,9,20,0.00
2013-7-16,62.2,57.9,54.1,57.0,54.0,50.9,94,87,80,30.08,29.92,21,9,22,0.00
2013-7-17,64.6,59.2,54.9,57.9,54.9,52.9,94,86,78,30.15,30.07,19,7,20,0.00
2013-7-18,63.5,56.7,54.0,56.7,53.8,52.2,95,90,77,30.12,29.99,23,9,24,0.00
2013-7-19,61.2,56.4,53.6,56.1,53.6,51.6,94,90,81,30.01,29.88,23,10,25,0.00
2013-7-20,60.1,55.1,52.3,54.9,52.5,50.9,96,91,81,29.91,29.80,25,12,27,0.00
2013-7-21,59.4,55.3,52.7,54.5,52.8,51.1,95,91,83,29.94,29.83,23,10,24,0.00
2013-7-22,63.7,58.5,54.3,58.5,55.8,52.7,96,91,82,30.02,29.94,19,7,20,0.00
2013-7-23,66.4,60.2,56.1,59.4,56.9,55.0,97,89,76,30.06,29.99,15,6,16,0.00
2013-7-24,68.2,59.3,54.9,59.4,56.1,54.0,98,90,71,30.05,29.95,18,8,21,0.00
2013-7-25,61.0,55.7,53.1,56.5,53.7,52.0,97,93,84,30.08,29.98,22,10,23,0.00
2013-7-26,61.3,56.4,53.1,57.4,54.2,51.8,97,92,85,30.16,30.06,21,10,23,0.00
2013-7-27,60.6,56.5,53.8,56.3,54.2,52.3,97,92,85,30.09,29.92,21,9,22,0.00
2013-7-28,59.5,55.6,53.8,54.5,53.1,51.8,96,91,83,29.94,29.87,27,12,30,0.00
2013-7-29,61.2,57.2,54.5,55.2,53.4,52.0,92,87,79,30.07,29.90,28,14,30,0.00
2013-7-30,62.1,57.1,53.4,55.8,53.5,51.4,94,88,79,30.16,30.07,18,9,22,0.00
2013-7-31,64.8,57.2,53.2,57.4,53.7,51.3,94,88,77,30.15,30.04,22,10,23,0.00
2013-8-1,63.7,58.0,55.0,56.8,54.1,52.2,91,87,78,30.12,30.01,23,10,26,0.00
2013-8-2,62.2,57.0,54.0,56.5,53.6,51.8,93,89,79,30.04,29.95,24,10,27,0.00
2013-8-3,61.2,55.9,52.3,55.4,53.0,50.7,95,90,81,30.03,29.96,25,10,25,0.00
2013-8-4,59.7,55.7,52.7,54.7,52.7,51.3,96,90,81,30.07,30.01,23,9,24,0.00
2013-8-5,59.4,55.9,53.8,54.5,52.8,51.3,93,90,82,30.09,30.00,22,7,23,0.00
2013-8-6,62.8,57.4,53.8,55.9,53.6,51.3,93,88,77,30.10,30.03,19,8,21,0.00
2013-8-7,63.7,59.4,56.1,57.7,55.6,53.4,94,87,79,30.16,30.09,18,8,19,0.00
2013-8-8,65.7,60.6,56.5,57.0,55.6,52.9,93,84,71,30.09,29.98,17,5,18,0.00
2013-8-9,66.4,58.8,54.7,58.3,54.6,52.3,92,86,73,30.04,29.97,17,7,19,0.00
2013-8-10,66.6,60.4,57.2,59.2,56.2,54.1,93,86,75,30.10,30.04,17,6,18,0.00
2013-8-11,63.3,57.1,54.9,57.6,54.8,53.1,96,92,81,30.08,29.99,21,9,22,0.00
2013-8-12,62.2,57.4,54.7,57.2,54.9,53.2,96,91,82,30.06,29.99,18,9,20,0.00
2013-8-13,70.5,61.3,56.1,59.9,56.1,53.8,92,83,67,30.04,29.96,19,7,23,0.00
2013-8-14,66.6,60.6,56.1,61.3,56.8,53.6,94,88,78,30.03,29.95,20,9,22,0.00
2013-8-15,70.0,63.6,59.2,63.7,60.7,58.1,97,91,80,30.01,29.95,16,7,18,0.00
2013-8-16,65.8,61.1,58.3,61.3,59.0,56.1,98,93,84,30.04,29.98,18,9,20,0.00
2013-8-17,69.8,61.7,58.1,61.9,57.8,55.8,93,87,74,30.04,29.91,20,9,22,0.00
2013-8-18,70.0,62.1,57.2,61.3,58.2,55.4,95,88,72,29.94,29.82,15,7,16,0.00
2013-8-19,70.5,63.1,58.5,60.1,58.4,56.3,94,85,67,29.95,29.83,18,6,20,0.00
2013-8-20,64.8,60.5,57.6,59.0,57.1,55.0,96,89,79,29.95,29.88,18,8,20,0.00
2013-8-21,64.9,60.5,57.7,58.1,55.7,54.3,91,84,75,30.00,29.91,18,7,19,0.00
2013-8-22,68.2,61.2,57.0,57.4,55.1,53.2,89,81,67,30.03,29.93,17,7,18,0.00
2013-8-23,60.4,58.5,56.3,56.7,55.0,53.1,90,88,84,29.98,29.85,22,9,24,0.00
2013-8-24,67.5,61.0,56.5,60.6,57.2,54.1,93,88,76,29.94,29.88,22,8,24,0.00
2013-8-25,70.3,64.0,59.9,63.5,60.4,58.1,95,88,78,29.99,29.93,22,6,23,0.00
2013-8-26,70.9,63.1,59.9,60.4,57.7,51.8,93,83,53,30.06,29.94,16,6,17,0.00
2013-8-27,70.2,62.0,56.8,61.7,57.9,55.2,95,87,68,29.95,29.86,19,6,21,0.00
2013-8-28,70.9,62.6,57.7,64.0,60.0,56.7,97,92,79,29.98,29.90,17,7,17,0.00
2013-8-29,70.3,64.8,60.4,63.9,61.3,58.8,95,89,78,30.10,29.98,14,5,14,0.00
2013-8-30,72.9,66.2,61.7,64.0,61.8,59.2,96,86,71,30.08,29.95,14,6,15,0.00
2013-8-31,67.6,61.5,56.8,61.2,58.5,55.8,96,90,78,30.02,29.93,20,8,22,0.00
2013-9-1,70.3,62.9,57.4,63.5,58.7,55.6,94,86,71,29.99,29.91,18,7,20,0.00
2013-9-2,72.0,65.7,61.0,64.8,61.6,57.9,96,87,76,30.00,29.91,15,5,16,0.00
2013-9-3,73.8,64.9,59.2,62.4,59.5,57.7,96,83,66,30.04,29.97,18,6,19,0.00
2013-9-4,78.6,66.0,59.7,61.9,58.8,54.9,93,79,47,30.07,29.97,17,6,18,0.00
2013-9-5,78.1,66.2,60.1,61.0,57.4,52.3,92,75,43,30.05,29.98,25,7,25,0.00
2013-9-6,85.3,70.3,58.6,62.1,58.2,51.1,90,68,35,30.03,29.86,11,2,13,0.00
2013-9-7,82.8,67.9,56.7,61.7,56.5,50.5,96,69,39,29.91,29.84,17,4,22,0.00
2013-9-8,68.9,60.5,55.9,60.1,57.1,54.7,97,89,70,29.92,29.80,17,7,18,0.00
2013-9-9,66.6,59.4,54.5,60.4,56.8,53.6,97,91,79,29.86,29.75,19,8,22,0.00
2013-9-10,64.2,59.7,57.9,59.5,57.8,56.8,98,94,84,29.89,29.78,30,10,30,0.00
2013-9-11,67.8,64.3,62.1,60.1,59.2,58.6,91,84,74,30.04,29.99,20,-21,20,0.00
2013-9-12,68.4,63.1,58.3,61.9,59.5,56.5,96,88,78,30.03,29.92,18,5,18,0.00
2013-9-13,63.9,59.2,56.1,58.6,56.3,54.1,95,90,82,29.95,29.80,22,9,23,0.00
2013-9-14,66.2,59.6,55.8,60.4,56.4,53.8,94,89,79,29.87,29.78,19,9,19,0.00
2013-9-15,70.5,62.6,56.5,61.2,57.5,53.6,92,84,71,29.91,29.81,16,5,17,0.00
2013-9-16,73.6,62.6,58.3,61.2,58.3,55.8,97,86,57,29.94,29.82,15,6,19,0.00
2013-9-17,72.5,64.6,58.5,56.8,54.9,52.0,91,72,54,29.93,29.86,27,8,29,0.00
2013-9-18,78.4,64.4,56.7,57.7,53.7,46.2,84,70,33,29.96,29.85,12,3,14,0.00
2013-9-19,74.3,62.8,55.8,57.9,55.2,52.5,90,78,50,29.91,29.78,13,4,14,0.00
2013-9-20,66.9,61.0,54.7,61.7,57.5,51.4,94,88,81,29.90,29.82,24,8,26,0.00
2013-9-21,65.5,62.3,59.2,61.0,57.8,52.3,96,86,65,29.94,29.84,19,7,22,0.55
2013-9-22,69.4,60.8,52.5,57.6,54.1,50.5,94,79,56,30.04,29.94,17,4,19,0.00
2013-9-23,75.6,64.4,55.8,62.2,56.3,51.1,90,76,53,30.07,29.97,17,3,17,0.00
2013-9-24,73.0,64.0,58.6,59.0,54.3,48.6,91,72,49,30.04,29.94,28,8,32,0.00
2013-9-25,68.4,61.3,56.3,49.8,47.4,44.2,76,61,44,29.98,29.86,28,9,30,0.00
2013-9-26,71.1,61.9,55.0,53.6,45.1,37.0,67,55,29,30.03,29.88,19,6,21,0.00
2013-9-27,75.4,64.0,55.6,53.2,45.2,36.3,83,53,26,30.14,30.03,17,4,18,0.00
2013-9-28,74.7,62.2,52.2,56.8,50.3,38.1,88,67,31,30.13,30.04,12,3,12,0.00
2013-9-29,69.6,62.6,56.8,61.3,58.7,55.4,96,87,73,30.15,30.09,16,6,18,0.00
2013-9-30,66.4,62.7,59.7,62.6,59.0,43.7,97,88,52,30.12,30.01,14,6,16,0.00
2013-10-1,68.4,60.7,53.4,56.5,51.2,45.1,87,72,55,30.06,29.96,12,3,15,0.00
2013-10-2,70.3,60.9,52.9,56.1,51.3,45.5,89,72,45,30.05,29.97,20,4,21,0.00
2013-10-3,74.3,68.6,58.3,42.4,33.8,25.7,55,29,18,30.13,29.99,23,10,25,0.00
2013-10-4,80.1,69.9,61.9,37.0,30.4,21.4,39,25,12,30.13,30.01,27,8,27,0.00
2013-10-5,83.5,70.7,57.4,46.4,29.9,23.4,45,24,12,30.23,30.13,24,4,24,0.00
2013-10-6,83.7,66.7,53.4,47.8,40.0,30.2,67,41,15,30.16,30.03,16,4,17,0.00
2013-10-7,72.1,61.6,53.6,54.0,44.6,33.6,85,56,31,30.04,29.91,13,4,14,0.00
2013-10-8,65.3,57.1,50.2,54.3,50.6,46.2,90,79,51,29.96,29.75,19,4,21,0.00
2013-10-9,64.6,57.2,52.2,52.5,49.1,45.0,87,75,51,29.81,29.68,12,4,13,0.00
2013-10-10,60.6,55.3,52.3,51.6,50.4,49.1,90,84,71,30.06,29.80,20,6,21,0.00
2013-10-11,58.5,53.5,50.5,50.7,49.3,48.0,94,86,73,30.14,30.03,15,6,15,0.00
2013-10-12,57.7,53.4,50.4,51.8,49.8,48.2,93,88,79,30.06,29.95,20,6,22,0.00
2013-10-13,68.4,57.2,49.8,54.0,49.7,44.8,91,78,45,30.11,29.97,14,3,15,0.00
2013-10-14,77.2,61.1,47.3,53.2,44.4,35.6,90,59,23,30.17,30.04,15,2,17,0.00
2013-10-15,79.9,63.2,48.2,50.5,38.6,27.9,72,44,16,30.09,29.98,16,3,18,0.00
2013-10-16,80.2,63.7,50.5,48.7,39.9,32.2,77,45,19,30.13,30.03,11,3,13,0.00
2013-10-17,79.5,61.0,51.1,52.3,43.6,33.3,90,56,21,30.13,30.00,10,3,12,0.00
2013-10-18,63.9,55.8,50.5,53.8,51.0,48.6,95,85,63,30.11,30.03,11,4,13,0.00
2013-10-19,75.6,57.0,46.4,54.9,50.0,42.4,94,79,41,30.13,30.03,10,3,11,0.01
2013-10-20,60.1,53.0,49.3,53.1,50.1,47.8,97,90,74,30.08,29.96,16,5,17,0.00
2013-10-21,58.1,52.3,49.6,52.0,49.7,48.2,96,91,78,30.06,29.96,15,6,15,0.00
2013-10-22,60.6,52.3,48.6,54.1,50.2,47.7,98,93,79,30.08,29.97,14,4,15,0.00
2013-10-23,57.4,51.3,48.2,52.7,49.5,47.5,98,94,83,30.04,29.95,18,6,18,0.00
2013-10-24,57.0,52.3,48.9,51.6,48.8,46.4,94,88,78,30.16,30.02,16,5,16,0.00
2013-10-25,63.7,55.4,48.9,53.8,50.5,46.4,92,84,69,30.22,30.12,10,2,12,0.00
2013-10-26,69.6,56.5,48.4,55.9,51.5,46.8,95,85,54,30.20,30.06,16,4,16,0.01
2013-10-27,58.5,53.0,49.3,51.3,49.0,46.2,96,87,72,30.09,29.72,29,11,32,0.00
2013-10-28,58.1,54.0,47.7,50.5,48.0,44.1,90,80,67,29.89,29.71,20,5,22,0.00
2013-10-29,58.8,54.9,48.9,50.4,48.4,45.1,87,79,66,30.11,29.89,14,4,16,0.00
2013-10-30,64.0,53.7,46.0,51.4,46.8,42.8,92,78,57,30.21,30.10,11,2,11,0.00
2013-10-31,70.3,55.2,45.7,52.9,46.6,39.0,85,74,44,30.23,30.11,8,2,9,0.00
2013-11-1,72.9,59.9,48.6,52.9,46.4,43.3,85,63,40,30.20,30.05,17,4,17,0.00
2013-11-2,61.9,54.6,49.6,54.9,49.7,42.8,95,84,69,30.07,29.95,17,4,17,0.00
2013-11-3,61.2,54.9,48.9,49.3,40.5,28.0,89,59,31,30.11,29.97,15,4,16,0.00
2013-11-4,70.5,56.7,46.6,42.6,37.2,23.2,76,52,17,30.12,29.97,21,5,21,0.00
2013-11-5,71.1,58.5,48.7,50.4,41.3,34.7,81,55,28,30.27,30.11,12,2,14,0.00
2013-11-6,70.5,60.8,49.8,45.5,39.2,34.3,77,47,29,30.30,30.20,16,4,18,0.00
2013-11-7,69.1,58.3,51.3,52.9,47.0,39.7,91,67,35,30.22,30.12,12,3,12,0.00
2013-11-8,65.1,55.6,50.0,55.0,50.9,45.7,97,85,64,30.14,30.00,9,2,10,0.00
2013-11-9,67.5,54.7,46.6,52.2,48.7,43.0,92,81,56,30.10,30.01,11,3,12,0.00
2013-11-10,61.0,53.6,49.5,51.8,49.6,47.3,94,87,70,30.17,30.07,13,2,15,0.01
2013-11-11,62.4,54.6,49.1,52.9,50.4,46.8,94,86,69,30.23,30.13,10,2,11,0.00
2013-11-12,69.4,59.5,55.0,53.4,50.9,46.6,89,75,46,30.32,30.20,11,2,12,0.00
2013-11-13,65.8,54.8,48.7,55.4,51.4,45.7,97,89,64,30.30,30.15,16,4,17,0.00
2013-11-14,57.2,54.1,51.6,53.4,50.6,43.7,97,89,65,30.17,29.92,15,5,17,0.00
2013-11-15,61.3,53.4,46.0,49.5,45.1,40.5,89,74,53,29.93,29.78,12,4,13,0.00
2013-11-16,60.8,53.3,47.1,51.6,47.6,44.1,92,81,60,29.98,29.82,16,5,17,0.00
2013-11-17,57.6,52.6,49.6,49.5,48.3,46.8,93,86,73,30.14,29.97,12,4,13,0.00
2013-11-18,56.5,52.1,47.5,49.6,47.9,45.3,93,86,75,30.21,30.14,15,4,15,0.00
2013-11-19,56.7,55.0,52.7,55.4,51.7,47.5,96,89,79,30.16,29.98,15,5,17,0.45
2013-11-20,57.7,55.2,51.4,56.7,54.1,49.3,98,96,91,29.99,29.89,15,4,17,1.03
2013-11-21,61.9,55.9,50.7,50.5,36.5,23.0,96,55,24,30.03,29.94,26,7,28,0.01
2013-11-22,71.2,61.9,53.4,26.4,18.3,7.5,31,19,9,30.06,29.94,30,8,34,0.00
2013-11-23,64.6,56.7,50.0,48.0,31.7,18.0,90,43,19,30.15,30.00,29,6,36,0.00
2013-11-24,61.5,50.9,43.7,47.3,43.5,39.2,93,77,50,30.30,30.15,11,2,12,0.00
2013-11-25,63.7,51.6,42.3,46.6,42.9,37.9,91,74,53,30.38,30.30,11,3,12,0.00
2013-11-26,61.2,53.4,46.2,44.2,41.8,37.9,88,66,48,30.32,30.08,16,4,17,0.00
2013-11-27,62.6,56.8,51.4,46.8,44.6,41.7,75,64,54,30.09,29.89,16,3,16,0.00
2013-11-28,67.8,55.7,48.7,49.5,45.3,41.2,88,70,42,30.12,29.92,11,3,11,0.00
2013-11-29,67.5,54.3,44.2,50.7,45.6,39.7,88,74,48,30.27,30.12,10,2,11,0.00
2013-11-30,65.7,52.0,45.0,51.1,47.9,42.8,97,87,53,30.32,30.24,10,2,10,0.00
2013-12-1,68.7,54.1,44.8,50.4,46.7,41.7,95,78,43,30.40,30.26,9,2,10,0.01
2013-12-2,60.1,53.2,47.7,53.8,50.1,46.6,98,90,73,30.28,30.01,18,4,19,0.01
2013-12-3,56.7,50.4,42.8,53.8,37.8,31.3,90,63,45,30.01,29.90,26,6,31,0.00
2013-12-4,50.9,43.2,34.3,33.3,23.9,12.9,77,50,26,30.14,29.99,15,4,18,0.00
2013-12-5,49.5,40.1,30.6,31.1,23.1,17.1,76,53,30,30.22,30.13,10,2,10,0.00
2013-12-6,50.7,43.6,33.4,47.7,35.7,27.0,92,74,46,30.25,29.95,33,6,36,0.41
2013-12-7,48.7,42.9,36.0,45.0,31.2,25.0,87,64,43,30.31,29.97,23,6,23,0.42
2013-12-8,43.9,38.0,32.5,30.2,23.9,18.9,84,58,38,30.38,30.28,18,4,19,0.00
2013-12-9,49.5,39.7,31.5,29.1,19.8,12.4,70,47,24,30.47,30.36,24,5,27,0.00
2013-12-10,52.3,43.1,35.1,33.8,27.5,23.5,72,55,34,30.45,30.26,16,5,17,0.00
2013-12-11,55.0,45.3,35.4,35.1,29.7,25.3,76,56,35,30.30,30.22,18,5,19,0.00
2013-12-12,59.7,47.4,37.9,40.1,35.4,30.9,79,64,36,30.31,30.21,14,2,14,0.00
2013-12-13,57.9,45.8,36.5,45.0,39.5,32.9,95,80,44,30.39,30.27,7,2,8,0.00
2013-12-14,60.1,48.6,37.8,44.2,37.6,32.9,95,69,38,30.44,30.36,17,5,21,0.00
2013-12-15,61.5,50.2,41.7,41.4,36.9,33.3,84,62,38,30.42,30.29,17,5,18,0.00
2013-12-16,67.5,57.1,45.0,41.9,35.6,30.9,86,47,27,30.30,30.16,18,4,25,0.00
2013-12-17,66.6,54.2,46.8,45.3,40.3,34.9,81,60,35,30.22,30.08,11,2,12,0.00
2013-12-18,54.0,48.4,43.3,47.8,44.1,37.6,91,85,69,30.09,29.81,19,6,21,0.00
2013-12-19,60.6,52.1,45.7,43.7,32.2,16.0,79,51,25,29.99,29.78,22,7,25,0.00
2013-12-20,55.0,48.3,38.8,43.7,29.7,19.9,77,50,28,30.07,29.98,11,2,11,0.00
2013-12-21,61.3,50.5,43.5,50.0,43.7,33.4,91,78,59,30.14,30.01,12,2,14,0.00
2013-12-22,64.8,52.1,40.8,43.9,40.0,36.3,94,67,39,30.34,30.13,16,2,18,0.00
2013-12-23,63.1,51.4,43.0,43.2,40.1,37.2,86,67,43,30.44,30.33,14,3,15,0.00
2013-12-24,65.7,51.7,42.6,46.6,42.2,38.1,85,71,47,30.39,30.25,9,2,9,0.00
2013-12-25,64.8,53.1,43.2,44.2,40.5,37.0,90,65,38,30.34,30.24,21,5,21,0.00
2013-12-26,66.6,51.9,42.4,46.0,38.3,32.2,88,64,30,30.30,30.21,16,2,22,0.00
2013-12-27,61.3,50.0,41.0,43.7,38.5,33.8,79,65,46,30.28,30.17,11,1,12,0.00
2013-12-28,63.9,48.2,39.7,45.7,39.3,32.7,90,74,33,30.20,30.08,11,3,12,0.00
2013-12-29,64.9,53.8,42.4,41.4,29.1,19.8,84,44,19,30.22,30.13,26,5,33,0.00
2013-12-30,62.6,49.6,40.3,47.3,39.6,31.3,93,70,45,30.31,30.22,9,1,9,0.00
2013-12-31,58.3,47.5,40.3,45.0,38.8,34.9,93,73,48,30.32,30.20,14,2,14,0.00
2014-1-1,59.9,47.8,38.1,42.8,37.9,33.3,86,69,51,30.27,30.17,6,1,6,0.00
2014-1-2,66.2,53.4,43.3,40.8,37.4,34.0,84,57,31,30.23,30.09,13,3,14,0.00